TimeCDT,TemperatureF,Dew PointF,Humidity,Sea Level PressureIn,VisibilityMPH,Wind Direction,Wind SpeedMPH,Gust SpeedMPH,PrecipitationIn,Events,Conditions,WindDirDegrees,DateUTC
12:54 AM,59.0,51.1,75,30.12,10.0,ENE,4.6,-,N/A,,Clear,60,2013-06-14 05:54:00
1:54 AM,57.9,51.1,78,30.12,10.0,ENE,4.6,-,N/A,,Clear,60,2013-06-14 06:54:00
2:54 AM,55.9,51.1,84,30.12,10.0,ENE,4.6,-,N/A,,Clear,60,2013-06-14 07:54:00
3:54 AM,54.0,50.0,86,30.14,10.0,Calm,Calm,-,N/A,,Clear,0,2013-06-14 08:54:00
4:54 AM,54.0,50.0,86,30.12,10.0,ENE,4.6,-,N/A,,Clear,70,2013-06-14 09:54:00
5:54 AM,54.0,51.1,90,30.14,10.0,ENE,6.9,-,N/A,,Clear,60,2013-06-14 10:54:00
6:54 AM,57.9,46.9,67,30.13,10.0,ENE,8.1,-,N/A,,Clear,70,2013-06-14 11:54:00
7:54 AM,61.0,46.9,60,30.17,10.0,ESE,4.6,-,N/A,,Clear,110,2013-06-14 12:54:00
8:54 AM,63.0,46.9,56,30.16,10.0,SE,5.8,-,N/A,,Clear,140,2013-06-14 13:54:00
9:54 AM,68.0,46.9,47,30.15,10.0,ESE,6.9,-,N/A,,Clear,110,2013-06-14 14:54:00
10:54 AM,70.0,46.0,42,30.15,10.0,Variable,3.5,-,N/A,,Clear,0,2013-06-14 15:54:00
11:54 AM,72.0,46.9,41,30.14,10.0,Variable,4.6,-,N/A,,Clear,0,2013-06-14 16:54:00
12:54 PM,73.9,48.0,40,30.11,10.0,Variable,3.5,-,N/A,,Clear,0,2013-06-14 17:54:00
1:54 PM,75.9,48.9,38,30.10,10.0,South,9.2,-,N/A,,Clear,190,2013-06-14 18:54:00
2:54 PM,77.0,50.0,39,30.09,10.0,Variable,6.9,-,N/A,,Clear,0,2013-06-14 19:54:00
3:54 PM,78.1,51.1,39,30.04,10.0,ESE,8.1,-,N/A,,Clear,110,2013-06-14 20:54:00
4:54 PM,78.1,52.0,40,30.03,10.0,SSW,9.2,-,N/A,,Clear,210,2013-06-14 21:54:00
5:54 PM,75.0,51.1,43,30.00,10.0,South,6.9,-,N/A,,Clear,180,2013-06-14 22:54:00
6:54 PM,73.9,54.0,50,30.01,10.0,SSE,4.6,-,N/A,,Clear,150,2013-06-14 23:54:00
7:54 PM,72.0,55.0,55,30.02,10.0,SE,3.5,-,N/A,,Partly Cloudy,140,2013-06-15 00:54:00
8:54 PM,69.1,55.0,61,30.01,10.0,SE,4.6,-,N/A,,Scattered Clouds,140,2013-06-15 01:54:00
9:54 PM,66.9,55.0,66,30.01,10.0,SE,4.6,-,N/A,,Partly Cloudy,140,2013-06-15 02:54:00
10:54 PM,66.0,55.0,68,30.02,10.0,ESE,4.6,-,N/A,,Scattered Clouds,120,2013-06-15 03:54:00
11:54 PM,64.9,55.0,70,30.00,10.0,ESE,6.9,-,N/A,,Scattered Clouds,120,2013-06-15 04:54:00